CAPE
2 3 3 1 4 81 4 0 3 8 0 0 0 2 0 0 0 0 0 0 0 0 0 0 0 0 0 0 0 9 6 0 0 0 0 0 0 0 2 1 0 0 11 83 56
15 8 4 3 11 51 12 0 2 5 0 0 0 2 0 0 0 0 0 0 0 0 0 1 0 0 0 0 0 0 6 1 0 0 0 0 0 0 0 0 10 0 25 147 78
11 5 22 8 7 18 38 2 3 0 0 0 0 0 0 0 0 0 0 0 0 0 2 0 0 0 0 0 0 0 3 0 0 0 0 0 0 0 0 0 38 17 3 131 122
18 11 8 22 19 22 72 3 1 0 0 0 0 0 0 0 0 0 0 1 27 0 0 0 0 0 0 0 0 0 0 12 5 1 0 0 0 0 1 0 20 15 8 64 141
24 17 17 7 3 8 41 2 0 0 0 0 2 0 0 0 0 0 0 9 10 0 0 0 0 0 0 0 0 0 0 0 0 0 0 0 0 0 0 0 2 34 50 4 63
0 12 12 6 2 3 21 0 1 0 0 0 3 0 0 0 0 0 0 0 1 0 0 0 0 0 0 0 0 0 0 0 0 0 0 0 0 0 0 0 0 7 42 37 91
8 1 0 0 0 8 3 3 0 2 0 0 0 0 0 0 0 0 0 0 0 0 0 0 0 0 0 0 0 0 0 0 0 0 0 0 0 0 0 0 0 65 44 30 97
7 0 0 0 0 31 5 5 1 0 0 0 6 2 0 0 0 0 0 0 0 0 0 0 0 0 1 2 0 3 0 0 0 0 0 0 0 0 0 0 0 0 39 84 11
15 0 0 0 0 6 17 2 0 0 8 2 6 2 0 0 0 0 0 0 0 0 3 6 18 12 11 0 1 0 0 0 0 0 0 0 0 0 0 0 0 69 12 11 25
7 0 0 0 0 24 2 0 1 19 25 7 0 0 0 0 0 0 0 0 0 10 7 11 22 4 4 4 0 0 0 0 0 0 11 0 0 0 10 26 0 43 53 30 5
15 0 0 2 10 1 0 5 4 0 2 0 0 0 0 0 0 0 0 0 0 2 0 4 5 0 0 0 1 0 6 0 1 16 12 0 0 0 0 133 97 136 73 24 0
0 0 0 11 3 3 0 0 0 0 0 0 0 0 0 0 0 0 0 0 0 0 0 0 1 0 0 1 6 7 1 0 0 13 5 0 0 1 1 53 173 163 78 5 0
0 1 0 10 11 0 0 0 0 0 0 0 0 0 0 0 0 0 0 1 4 1 0 0 0 1 0 0 5 7 0 0 0 6 4 0 0 33 42 60 55 62 13 0 0
0 0 0 20 0 1 0 0 0 0 0 0 0 0 0 0 0 0 0 2 2 2 0 0 0 1 5 3 6 1 0 0 0 0 0 0 0 11 86 182 165 12 0 3 24
0 16 13 11 2 0 0 0 0 0 0 0 0 0 0 0 0 0 0 0 0 0 0 2 4 0 0 0 2 0 0 3 2 1 3 0 13 0 60 38 37 34 22 62 9
0 1 1 0 0 0 0 0 0 0 0 0 0 0 0 0 1 0 0 0 0 0 0 0 0 0 0 1 11 0 0 0 0 0 0 13 7 0 0 0 3 10 43 39 28
0 0 0 0 0 0 0 0 0 0 0 0 0 0 0 0 0 0 0 1 2 0 0 2 1 1 1 3 0 0 0 0 0 0 1 0 0 0 4 0 1 0 3 1 13
0 0 1 1 0 0 0 0 0 0 0 0 0 0 0 0 0 0 1 4 0 1 0 0 0 0 9 0 0 1 1 0 3 4 1 0 0 0 3 4 0 0 0 0 0
1 0 1 1 0 0 0 0 0 0 0 0 0 0 0 0 0 0 0 1 0 0 0 2 0 0 0 1 5 0 0 0 0 0 0 0 0 3 5 2 1 0 0 0 0
0 0 1 0 0 0 0 1 0 0 0 0 0 0 0 0 0 0 0 0 0 0 0 0 0 0 1 8 5 0 0 0 0 0 0 0 0 0 0 0 0 0 0 0 0
0 0 2 0 0 0 1 0 0 0 0 0 0 0 0 0 0 0 0 0 0 0 0 0 1 0 4 0 0 0 0 0 0 0 0 0 0 0 1 1 1 0 0 0 0
2 0 0 0 0 0 0 0 0 0 0 0 0 0 0 0 0 0 0 0 0 0 0 0 0 0 0 0 0 0 0 0 0 0 0 0 0 0 0 0 0 0 0 0 0
0 1 0 0 0 0 0 0 0 0 0 0 0 0 0 0 0 0 0 0 0 0 0 0 0 0 1 0 0 0 0 0 0 0 0 0 0 0 0 0 0 0 0 0 0
0 1 0 0 0 0 0 0 0 0 0 0 0 0 0 0 0 0 0 0 0 0 0 0 0 0 0 0 0 0 0 0 0 0 0 0 0 0 0 0 0 0 0 0 0
0 0 0 0 0 0 0 0 0 0 0 0 0 0 0 0 0 0 0 0 0 0 0 0 0 0 0 0 0 0 0 0 0 0 0 0 0 0 0 0 0 0 0 0 0
0 0 0 0 0 0 0 0 0 0 0 0 0 0 0 0 0 0 0 0 0 0 0 0 0 0 0 0 0 0 0 0 0 0 0 0 0 0 0 0 0 0 0 0 0
0 0 0 0 0 0 0 0 0 0 0 0 0 0 0 0 0 0 0 0 0 0 0 0 0 0 0 0 0 0 0 0 0 0 0 0 0 0 0 0 0 0 0 0 0
CIN
0 0 0 -1 -3 0 -2 0 0 0 0 0 0 0 0 0 0 0 0 0 0 0 0 0 0 0 0 0 0 -3 -1 0 0 0 0 0 0 0 -5 -3 0 0 -39 -23 -89
-1 -1 0 0 -12 -1 -24 -1 0 0 0 0 0 0 0 0 0 0 0 0 0 0 0 0 0 0 0 0 0 0 0 0 0 0 0 0 0 0 0 0 -7 0 -35 -76 -101
0 -2 -1 -2 -1 0 0 0 0 0 0 0 0 0 0 0 0 0 0 0 0 0 -1 0 0 0 0 0 0 0 0 0 0 0 0 0 0 0 0 0 0 -15 -19 -48 -80
0 -1 -1 -1 0 0 0 0 0 0 0 0 0 0 0 0 0 -2 0 0 -1 0 0 0 0 0 0 0 0 0 -1 -2 -2 -7 0 0 0 0 -39 0 -11 -21 -18 -29 -18
0 0 -1 -1 -7 -6 -1 0 0 0 0 0 -1 0 0 0 0 0 0 -3 -1 0 0 0 0 0 0 0 0 0 0 0 0 0 0 0 0 0 0 0 -10 -10 -15 -30 -23
0 -1 0 0 -1 -4 -12 0 0 0 0 0 -2 0 0 0 0 0 0 0 -1 0 0 0 0 0 0 0 0 0 0 0 0 0 0 0 0 0 0 0 0 -3 -32 -25 -11
-4 0 0 0 0 -1 -16 0 0 0 0 0 0 0 0 0 0 0 0 0 0 0 0 0 0 0 0 0 0 -3 0 0 0 0 0 0 0 0 0 0 0 -2 -30 -28 -2
-11 0 0 0 0 -8 -20 0 0 0 0 0 -3 -4 0 0 0 0 0 0 0 0 0 0 -1 0 -1 -5 -1 -1 0 0 0 0 0 0 0 0 0 0 0 0 -9 -6 -34
-28 0 0 0 0 0 0 0 0 0 0 -1 -1 0 0 0 0 0 0 0 0 0 -3 -2 -1 -1 -2 0 0 -2 0 0 0 -2 0 0 0 0 0 0 0 -5 -21 -28 -39
-14 0 0 0 0 -1 0 0 -3 -1 0 -1 0 0 0 0 0 0 0 0 0 -1 -2 -4 -1 -1 -4 0 0 0 0 0 0 0 -9 0 0 0 -23 -13 0 -7 -15 -36 -52
-28 0 0 0 0 0 0 0 0 0 0 0 0 0 0 0 0 0 0 0 0 0 -1 -2 0 0 0 0 -2 0 0 0 -11 -3 -9 0 0 0 0 -12 -13 -14 -29 -66 0
-23 0 0 -1 0 0 0 0 0 0 0 0 0 0 0 0 0 0 0 0 0 0 0 0 0 0 0 -2 0 0 0 0 0 -20 -6 0 0 -50 -49 -30 -18 -28 -54 -66 0
0 0 0 0 0 0 0 0 0 0 0 0 0 0 0 0 0 0 0 -1 0 0 0 0 0 0 0 -1 0 0 -1 0 0 -23 -12 0 0 -35 -57 -25 -40 -64 -67 0 0
0 0 0 -3 0 0 0 0 0 0 0 0 0 0 0 0 0 0 0 -1 0 0 -1 0 0 0 0 0 0 -4 -2 -1 0 0 0 0 0 -56 -12 -6 -8 -68 0 -33 -51
0 -8 -1 -38 -35 0 0 0 0 0 0 0 0 0 0 0 -1 0 0 0 0 0 0 -1 -1 0 0 -1 -1 0 0 -5 0 -1 -2 0 -6 -11 -4 -8 -4 -17 -53 -38 -143
0 -5 -20 0 0 0 0 0 0 0 0 0 0 0 0 0 0 0 0 0 0 0 0 0 0 0 0 -4 -3 0 0 0 0 0 -1 -11 -3 0 0 0 -24 -17 -43 -34 -15
0 0 -7 0 0 0 0 0 0 0 0 0 0 0 0 0 -2 -1 -1 -1 -1 -2 0 0 -1 -6 -4 0 0 0 0 0 -3 -6 -4 0 0 0 0 0 0 0 -7 0 -15
-5 -1 0 0 0 0 0 0 0 0 0 0 0 0 0 0 0 0 -6 0 -4 0 0 0 0 0 -4 0 0 0 0 0 -11 -20 -1 0 0 0 0 0 0 0 0 0 0
-3 0 0 0 0 0 0 -2 0 0 0 0 0 0 0 0 0 0 0 -1 -1 0 0 -2 0 0 -5 -8 -1 -2 0 0 0 0 0 0 0 0 0 0 0 0 0 0 0
0 0 0 0 0 0 0 0 0 0 0 0 0 0 0 0 0 0 -2 0 0 0 0 0 -2 0 -8 -8 -6 -2 0 0 0 0 0 0 0 0 0 0 -1 0 0 0 0
0 0 -4 0 0 0 -2 0 0 0 0 0 0 0 0 0 0 0 0 0 0 0 0 0 -2 0 -17 0 0 0 0 0 0 0 0 0 0 0 0 0 0 0 0 0 0
0 0 0 0 0 0 0 0 0 0 0 0 0 0 0 0 0 0 0 0 0 0 0 0 0 0 0 0 0 0 0 0 0 0 0 0 0 0 0 -1 0 0 0 0 0
-2 0 0 0 0 0 0 0 0 0 0 0 0 0 0 0 0 0 0 0 0 0 0 0 0 0 -2 0 0 0 0 0 0 0 0 0 0 0 0 0 0 0 0 0 0
-2 0 0 -1 0 0 0 0 0 0 0 0 0 0 0 0 0 0 0 0 0 0 0 0 0 0 0 0 0 0 0 0 0 0 0 0 0 0 0 0 0 0 0 0 0
0 0 0 0 0 0 0 0 0 0 0 0 0 0 0 0 0 0 0 0 0 0 0 0 0 0 0 0 0 0 0 0 0 0 0 0 0 0 0 0 0 0 0 0 0
0 0 0 0 0 0 0 0 0 0 0 0 0 0 0 0 0 0 0 0 0 0 0 0 0 0 0 0 0 0 0 0 0 0 0 0 0 0 0 0 0 0 0 0 0
0 0 0 0 0 0 0 0 0 0 0 0 0 0 0 0 0 0 0 0 0 0 0 0 0 0 0 0 0 0 0 0 0 0 0 0 0 0 0 0 0 0 0 0 0
Wind_Speed
35 35 34 34 34 22 16 16 17 16 18 22 23 20 22 23 24 22 23 19 18 16 19 22 21 21 22 26 26 27 36 41 41 45 43 37 42 40 30 35 36 31 28 21 16
34 35 35 34 32 28 16 16 16 14 17 21 21 20 22 23 26 25 18 16 17 17 17 20 24 21 26 26 25 31 38 40 40 42 42 41 43 42 42 38 39 35 29 20 19
34 34 34 32 31 31 16 14 14 15 18 21 21 19 21 23 25 20 16 13 14 15 19 19 20 24 29 29 31 33 41 40 43 41 42 44 43 40 39 41 32 36 36 26 23
35 33 33 33 32 27 17 11 11 14 16 20 19 17 19 21 24 18 15 13 13 15 17 19 22 24 29 30 27 39 39 41 42 43 44 46 43 45 39 38 32 27 30 28 24
33 33 34 33 32 29 19 7 9 12 15 16 16 16 18 20 22 12 13 14 13 16 19 22 25 27 31 29 31 36 38 40 41 43 45 44 45 46 44 38 34 28 30 32 31
32 32 32 32 31 32 8 6 8 11 12 15 13 15 17 19 16 12 11 13 14 16 18 18 19 23 27 29 32 34 37 40 41 44 45 47 48 43 46 39 41 35 33 31 27
30 31 31 30 32 28 5 4 7 9 13 14 11 14 17 18 15 12 11 12 14 15 16 16 17 21 24 28 26 31 38 38 40 41 44 43 51 51 43 40 42 35 34 31 29
29 31 30 28 24 6 2 3 7 10 12 12 10 14 19 15 14 11 10 12 12 13 15 18 18 19 25 25 30 34 35 40 33 33 36 38 52 44 39 40 42 35 33 31 31
28 30 30 29 27 22 3 5 7 10 10 8 11 15 17 14 12 10 10 13 10 11 11 9 15 18 19 26 31 27 36 35 40 29 30 32 44 42 41 37 39 33 33 34 34
27 28 28 31 32 8 1 4 6 7 8 10 13 16 15 15 13 14 13 11 9 9 10 13 17 21 22 23 32 30 33 31 37 32 27 30 34 34 33 32 33 31 32 35 36
24 24 23 26 6 4 3 4 7 13 12 13 12 15 13 14 14 14 13 12 10 9 16 11 17 21 20 15 23 29 32 32 35 29 29 24 22 41 33 18 26 32 33 33 35
22 19 16 12 5 4 8 13 14 13 11 13 12 15 13 15 14 12 14 14 12 14 10 16 15 5 6 14 18 18 24 24 29 23 13 19 27 37 36 28 27 31 33 32 32
20 19 19 16 5 7 12 15 15 13 10 10 12 12 14 14 16 16 14 15 15 11 6 6 4 8 16 17 16 16 14 14 16 14 20 26 29 35 35 29 25 29 29 29 30
16 18 21 12 20 13 17 15 15 14 10 11 13 12 15 15 19 16 16 14 14 13 11 12 13 15 15 15 16 14 12 13 16 18 23 26 10 31 26 23 26 28 31 27 27
10 4 5 21 18 16 15 19 18 12 10 10 10 11 18 18 17 18 20 15 14 15 16 16 15 18 19 18 16 17 12 12 20 22 20 26 19 19 18 25 27 24 22 22 25
14 14 20 14 12 14 17 22 17 9 8 8 18 19 19 18 17 18 16 13 14 13 15 15 15 17 17 12 14 12 11 16 20 18 19 20 20 14 17 20 18 14 14 20 27
18 17 19 14 14 15 17 21 8 7 20 19 19 20 17 19 17 16 17 12 11 11 11 13 13 14 15 11 12 12 11 16 21 20 16 8 13 13 11 15 19 18 16 21 19
20 20 15 13 13 17 17 17 6 17 13 19 19 20 15 15 16 12 17 11 15 12 10 9 11 11 12 10 12 12 12 20 21 20 18 7 5 7 8 11 14 14 16 15 13
24 16 13 11 12 19 16 17 18 17 18 21 20 16 17 16 14 15 14 10 12 9 12 12 14 12 14 12 13 13 17 17 19 26 24 18 14 10 8 3 3 3 9 10 7
24 18 18 16 14 15 19 22 20 18 17 16 14 14 15 11 15 14 12 9 11 11 13 11 15 16 13 13 16 15 8 19 19 22 26 20 16 16 5 3 8 16 7 4 7
26 24 16 14 16 20 22 21 19 18 14 13 12 16 16 14 11 14 10 12 8 12 15 15 16 15 16 13 12 10 9 14 16 19 27 25 18 12 13 16 14 7 6 4 9
23 19 18 15 22 20 22 19 20 17 16 15 13 13 13 13 11 15 15 11 8 11 14 15 16 13 14 15 14 12 4 9 14 15 14 21 11 19 4 5 8 7 4 4 8
19 19 17 15 24 23 22 22 20 17 15 15 16 14 13 13 17 14 14 11 10 11 12 13 15 17 13 14 10 7 4 7 14 17 9 20 18 23 17 15 22 24 24 23 23
17 19 17 17 18 21 23 23 22 18 17 16 16 16 17 19 15 17 16 13 11 11 12 14 11 11 21 17 11 7 2 2 13 13 26 22 22 8 10 22 21 20 22 21 20
15 18 19 21 21 22 21 21 22 19 17 15 18 16 16 18 20 19 16 15 15 13 12 12 15 11 14 12 12 16 4 4 20 25 26 26 24 13 11 2 17 18 21 16 18
14 18 17 21 23 24 22 22 21 19 16 17 20 16 16 19 18 17 15 16 17 11 10 12 17 15 15 11 13 12 8 11 10 19 28 27 23 20 17 15 12 12 11 11 7
11 14 14 19 21 22 22 22 21 18 18 17 14 16 18 18 16 16 17 18 17 14 13 14 15 14 16 12 13 16 12 14 17 16 17 19 19 20 18 14 12 12 12 7 4
Wind_Direction
310 308 306 305 306 304 307 316 324 325 329 331 332 335 334 333 328 327 323 330 336 335 322 315 311 303 298 286 282 282 272 272 272 271 276 280 275 276 284 271 272 279 286 298 300
313 310 307 304 305 307 297 308 315 322 328 330 333 333 332 332 321 319 326 337 334 336 322 319 304 302 292 287 282 271 273 273 275 276 276 277 276 275 277 276 271 274 275 293 292
311 311 311 306 299 303 285 298 311 319 322 327 331 333 332 331 323 327 350 350 348 343 327 329 318 303 291 287 280 275 272 276 275 277 277 278 277 276 277 274 275 271 271 287 280
308 309 309 307 301 300 285 290 307 319 328 325 331 333 334 330 320 340 357 1 5 352 339 328 315 301 292 289 290 277 278 277 278 277 276 276 277 272 274 275 282 283 285 283 282
309 308 305 304 302 296 294 277 306 319 326 333 334 333 333 329 321 355 3 10 6 351 336 321 310 301 292 295 293 284 283 282 282 278 275 276 272 271 271 275 281 279 283 277 285
311 308 305 304 300 295 274 271 307 318 326 330 339 336 330 324 345 17 11 13 0 359 351 342 326 317 305 300 295 294 290 287 283 278 276 273 272 271 267 272 276 274 276 281 278
310 309 307 305 300 291 263 274 313 323 325 329 336 336 326 330 1 15 15 8 3 358 357 4 349 329 319 306 310 302 293 292 285 279 275 273 269 265 269 269 270 275 275 275 279
306 304 302 296 299 323 268 301 314 320 322 330 342 334 319 353 13 16 19 7 12 11 2 345 348 336 313 319 307 301 296 290 295 285 277 273 268 269 269 266 264 266 272 272 270
304 300 295 284 278 284 275 315 324 321 334 353 343 329 323 9 12 24 7 353 19 24 17 23 349 329 328 313 307 305 296 296 294 288 285 270 272 268 264 264 257 261 266 268 268
299 293 290 284 262 270 227 311 329 346 359 358 348 330 340 4 15 2 4 26 28 32 9 351 338 326 322 312 305 307 303 303 299 295 286 276 272 266 261 260 249 256 261 263 262
305 301 299 292 111 153 144 278 297 305 308 318 336 351 8 355 22 23 19 34 36 15 335 339 328 321 325 318 316 308 304 300 299 301 291 280 265 248 227 255 251 253 256 261 261
293 297 291 283 84 146 238 266 282 307 299 312 358 352 326 342 37 57 43 31 28 355 3 340 326 336 200 212 229 215 308 305 272 297 288 277 256 235 236 251 249 250 255 259 256
282 268 250 247 244 239 249 267 274 276 305 321 40 330 286 69 36 42 62 42 20 18 37 12 39 170 198 207 219 194 190 195 209 217 189 167 225 201 216 246 257 257 255 252 249
288 262 239 223 212 244 240 261 248 244 283 319 20 303 5 63 37 69 67 75 78 101 147 174 189 197 189 182 176 170 157 165 166 157 167 160 285 202 229 258 257 251 239 246 239
241 250 175 207 209 225 243 215 214 250 277 6 357 270 67 63 61 90 104 143 135 130 135 132 146 142 145 148 157 151 165 176 158 148 151 160 135 148 268 229 222 228 237 247 236
184 189 182 194 219 233 209 183 202 273 342 354 176 140 75 87 112 133 141 159 153 145 148 140 149 148 144 163 159 161 166 151 183 171 137 162 172 181 198 208 222 254 253 232 211
167 167 183 193 197 200 191 173 182 320 175 170 159 133 140 99 135 158 130 170 171 171 151 148 162 160 152 160 153 175 181 153 139 137 152 162 162 179 228 223 201 217 216 201 201
156 158 173 188 196 191 191 185 6 172 182 161 151 135 149 152 135 186 133 190 142 180 181 176 169 181 176 189 170 153 159 134 134 136 137 180 206 276 210 225 218 222 211 205 213
150 158 176 194 198 179 176 164 165 170 161 149 134 144 134 138 159 158 156 177 163 188 169 158 151 177 173 167 155 150 128 131 133 120 122 136 147 15 352 360 205 145 186 194 209
147 147 139 157 197 189 159 152 159 162 160 152 150 147 143 160 148 161 190 201 174 196 176 173 151 153 149 151 145 150 145 127 127 119 121 131 127 133 42 61 59 63 66 74 210
130 124 138 161 182 160 148 153 157 158 161 157 154 140 135 148 157 148 180 163 200 200 175 174 166 159 149 140 137 138 128 136 135 127 117 124 117 148 146 133 54 58 46 20 12
123 125 136 158 150 156 147 158 157 155 143 150 156 147 142 145 149 145 140 162 197 188 179 172 173 181 165 146 144 145 167 148 139 125 134 132 136 126 73 86 48 62 92 33 14
128 131 142 149 136 138 145 146 150 145 142 143 133 139 142 143 137 145 146 166 165 172 184 184 169 163 181 173 161 162 302 181 152 139 139 128 145 121 26 21 38 49 49 48 47
131 125 139 143 152 145 141 140 139 141 135 134 129 131 126 120 132 133 142 156 169 172 191 187 195 184 133 145 177 185 295 293 144 85 47 54 62 335 348 42 38 32 44 38 21
126 122 132 130 138 137 143 144 135 133 133 132 125 119 119 119 121 119 131 151 161 159 188 192 174 186 160 176 169 124 257 310 18 54 62 78 62 124 165 294 5 92 66 337 340
121 121 132 130 132 131 137 140 138 135 134 125 121 120 115 119 122 124 130 134 141 197 208 188 155 148 150 177 156 157 164 152 146 132 116 117 126 133 143 147 158 149 159 133 201
137 143 135 135 136 136 136 136 139 141 135 137 137 129 119 122 128 128 129 132 138 150 158 159 158 156 148 165 165 151 159 151 139 145 140 127 127 120 123 135 140 116 98 120 158